WX1PBD Weather Reports


time (UTC)temp
F
wind
direction
speed
knots
gust
knots
rain 1hr
in
rain 24hr
in
rain mn
in
humidity
%
barometer
mb
20260507052008 57 276 0.9 7.8 0.00 0.08 0.00 88 1006.9
20260507051008 57 279 4.3 10.4 0.00 0.08 0.00 88 1007.1
20260507050505 57 272 4.3 7.8 0.00 0.08 0.00 87 1007.1
20260507050005 57 278 2.6 6.1 0.00 0.08 0.00 87 1007.2
20260507045505 57 271 5.2 11.3 0.00 0.08 0.00 86 1007.3
20260507045008 57 260 4.3 14.8 0.00 0.08 0.00 87 1007.2
20260507044504 58 258 5.2 10.4 0.00 0.08 0.00 90 1007.2
20260507044008 58 254 3.5 10.4 0.00 0.08 0.00 92 1007.0
20260507043505 58 263 2.6 6.1 0.01 0.08 0.00 93 1006.9
20260507042504 58 263 2.6 6.1 0.01 0.08 0.00 93 1006.9
20260507042008 59 269 2.6 4.3 0.01 0.08 0.00 93 1007.1
20260507041504 59 238 1.7 5.2 0.01 0.08 0.00 93 1007.0
20260507041008 59 275 1.7 5.2 0.01 0.08 0.00 93 1007.1
20260507040505 59 266 2.6 6.1 0.01 0.08 0.00 93 1007.2
20260507040004 59 265 1.7 6.1 0.01 0.08 0.00 93 1007.1
20260507035008 59 256 4.3 7.8 0.01 0.08 0.08 93 1007.1
20260507034504 59 253 3.5 5.2 0.01 0.08 0.08 93 1006.8
20260507034008 59 239 4.3 8.7 0.01 0.08 0.08 93 1007.0
20260507033009 59 276 3.5 6.1 0.00 0.07 0.07 92 1006.9
20260507032504 59 303 2.6 10.4 0.00 0.07 0.07 92 1006.7
20260507032008 59 285 3.5 7.0 0.00 0.07 0.07 92 1006.4
20260507031504 59 285 3.5 8.7 0.00 0.07 0.07 92 1006.4
20260507031008 59 306 2.6 10.4 0.00 0.07 0.07 92 1006.2
20260507030505 59 248 2.6 10.4 0.00 0.07 0.07 92 1006.0
20260507030005 59 185 2.6 7.0 0.00 0.07 0.07 92 1006.1
20260507025504 59 301 4.3 10.4 0.00 0.07 0.07 92 1006.2
20260507024504 59 274 1.7 7.0 0.00 0.07 0.07 92 1006.3
20260507024008 59 163 2.6 10.4 0.00 0.07 0.07 92 1006.4
20260507023504 59 267 2.6 6.1 0.00 0.07 0.07 93 1006.5
20260507022008 58 131 2.6 5.2 0.00 0.07 0.07 93 1006.5
20260507021504 58 292 1.7 2.6 0.00 0.07 0.07 93 1006.5
20260507021009 58 248 2.6 7.0 0.00 0.07 0.07 93 1006.3
20260507020504 58 254 2.6 10.4 0.00 0.07 0.07 93 1006.4
20260507020004 58 280 1.7 7.8 0.00 0.07 0.07 93 1006.5
20260507015504 58 338 1.7 6.1 0.00 0.07 0.07 93 1006.5
20260507015008 58 319 1.7 7.8 0.00 0.07 0.07 92 1006.5
20260507014504 58 266 2.6 7.0 0.00 0.07 0.07 92 1006.6
20260507014008 58 42 2.6 6.1 0.00 0.07 0.07 92 1006.5
20260507013008 58 247 1.7 7.0 0.00 0.07 0.07 92 1006.7
20260507012504 58 245 1.7 8.7 0.00 0.07 0.07 92 1006.8
20260507012008 58 211 2.6 8.7 0.00 0.07 0.07 92 1006.8
20260507011008 58 97 2.6 8.7 0.00 0.07 0.07 92 1006.8
20260507010504 58 79 2.6 7.0 0.01 0.07 0.07 92 1006.8
20260507005008 58 111 2.6 10.4 0.01 0.07 0.07 92 1006.8
20260507004504 58 75 2.6 7.0 0.01 0.07 0.07 92 1006.8
20260507004008 58 284 1.7 7.8 0.01 0.07 0.07 92 1006.8
20260507003504 58 185 2.6 7.8 0.01 0.07 0.07 92 1006.9
20260507003008 58 117 2.6 7.8 0.02 0.07 0.07 92 1006.9
20260507002504 58 249 4.3 7.8 0.03 0.07 0.07 92 1006.8
20260507002007 58 286 2.6 8.7 0.03 0.07 0.07 92 1006.7
20260507001504 58 149 3.5 12.2 0.04 0.07 0.07 92 1006.6
20260507000005 58 296 2.6 10.4 0.03 0.06 0.06 92 1006.5
20260506235504 58 149 2.6 10.4 0.03 0.06 0.06 92 1006.6
20260506235008 59 159 2.6 4.3 0.03 0.06 0.06 92 1006.7
20260506234008 59 129 2.6 7.0 0.03 0.06 0.06 92 1006.6
20260506233505 59 137 1.7 5.2 0.03 0.06 0.06 92 1006.6
20260506233007 59 144 1.7 6.1 0.02 0.05 0.05 91 1006.5
20260506232503 59 218 1.7 4.3 0.01 0.04 0.04 91 1006.6
20260506232008 59 38 1.7 8.7 0.01 0.04 0.04 91 1006.7
20260506231505 59 153 3.5 10.4 0.00 0.03 0.03 91 1006.7
20260506231007 59 206 1.7 4.3 0.00 0.03 0.03 91 1006.6
20260506230504 60 138 2.6 10.4 0.00 0.03 0.03 91 1006.5
20260506230004 60 228 1.7 10.4 0.00 0.03 0.03 91 1006.6
20260506225504 60 167 3.5 7.8 0.01 0.03 0.03 91 1006.8
20260506225008 60 99 4.3 10.4 0.01 0.03 0.03 90 1006.8
20260506224504 60 103 4.3 7.0 0.01 0.03 0.03 90 1006.8
20260506223504 60 141 3.5 8.7 0.01 0.03 0.03 90 1006.8
20260506223008 60 135 4.3 7.8 0.01 0.03 0.03 90 1006.9
20260506222008 61 240 1.7 7.8 0.01 0.03 0.03 90 1007.1
20260506221504 61 138 3.5 10.4 0.01 0.03 0.03 89 1006.9
20260506221007 61 116 2.6 8.7 0.01 0.03 0.03 88 1007.1
20260506220504 61 232 1.7 5.2 0.01 0.03 0.03 88 1007.3
20260506215504 62 197 2.6 13.0 0.00 0.02 0.02 86 1007.5
20260506215009 62 144 5.2 11.3 0.00 0.02 0.02 85 1007.5
20260506214504 62 207 5.2 13.0 0.00 0.02 0.02 85 1007.5
20260506214008 62 115 4.3 10.4 0.00 0.02 0.02 85 1007.5
20260506213504 62 323 3.5 10.4 0.00 0.02 0.02 85 1007.6
20260506213008 62 182 2.6 12.2 0.00 0.02 0.02 85 1007.6
20260506212504 62 236 2.6 10.4 0.00 0.02 0.02 85 1007.6
20260506212007 62 356 3.5 7.8 0.00 0.02 0.02 85 1007.6
20260506211504 62 207 4.3 10.4 0.00 0.02 0.02 85 1007.7
20260506211008 62 272 2.6 10.4 0.01 0.02 0.02 85 1007.7
20260506210504 62 104 2.6 8.7 0.01 0.02 0.02 85 1007.7
20260506210004 62 275 5.2 10.4 0.01 0.02 0.02 84 1007.7
20260506205504 62 181 3.5 7.0 0.01 0.02 0.02 84 1007.9
20260506205008 62 169 3.5 7.8 0.01 0.02 0.02 83 1008.0
20260506204007 63 190 7.8 14.8 0.02 0.02 0.02 80 1007.9
20260506203505 63 157 2.6 10.4 0.02 0.02 0.02 79 1007.8
20260506203008 63 164 2.6 8.7 0.02 0.02 0.02 79 1007.9
20260506202008 63 225 3.5 10.4 0.02 0.02 0.02 80 1007.8
20260506201505 64 307 2.6 11.3 0.02 0.02 0.02 80 1007.6
20260506200505 64 147 1.7 7.0 0.01 0.01 0.01 80 1007.5
20260506200005 64 89 2.6 10.4 0.01 0.01 0.01 79 1007.6
20260506195504 64 170 2.6 6.1 0.01 0.01 0.01 79 1007.8
20260506195009 65 166 4.3 11.3 0.01 0.01 0.01 77 1008.0
20260506194504 65 280 1.7 4.3 0.01 0.01 0.01 76 1008.0
20260506194008 65 124 2.6 8.7 0.00 0.00 0.00 74 1008.1
20260506193505 66 99 4.3 12.2 0.00 0.00 0.00 73 1008.0
20260506193009 66 212 4.3 8.7 0.00 0.00 0.00 72 1008.0
20260506192505 67 131 4.3 7.8 0.00 0.00 0.00 70 1007.9
20260506192008 67 102 1.7 5.2 0.00 0.00 0.00 69 1008.0
20260506191505 68 283 4.3 10.4 0.00 0.00 0.00 67 1007.9
20260506191009 68 193 3.5 17.4 0.00 0.00 0.00 66 1007.8
20260506190504 69 170 4.3 10.4 0.00 0.00 0.00 65 1007.8
20260506190005 69 129 1.7 10.4 0.00 0.00 0.00 64 1007.9
20260506185504 69 193 1.7 10.4 0.00 0.00 0.00 63 1007.8
20260506184504 70 133 2.6 8.7 0.00 0.00 0.00 61 1007.8
20260506184008 70 246 3.5 7.8 0.00 0.00 0.00 61 1007.9
20260506183505 70 276 3.5 7.0 0.00 0.00 0.00 61 1007.8
20260506183009 70 200 1.7 7.0 0.00 0.00 0.00 62 1008.0
20260506182505 69 97 2.6 8.7 0.00 0.00 0.00 62 1007.9
20260506182008 70 194 4.3 8.7 0.00 0.00 0.00 61 1007.9
20260506181505 70 176 4.3 12.2 0.00 0.00 0.00 61 1008.1
20260506180006 70 160 5.2 11.3 0.00 0.00 0.00 61 1008.3
20260506175504 70 159 4.3 13.0 0.00 0.00 0.00 60 1008.3
20260506175008 71 204 4.3 10.4 0.00 0.00 0.00 60 1008.4
20260506174504 70 237 2.6 11.3 0.00 0.00 0.00 60 1008.5
20260506174008 70 98 2.6 11.3 0.00 0.00 0.00 61 1008.4
20260506173505 70 189 5.2 13.0 0.00 0.00 0.00 60 1008.5
20260506173009 71 190 4.3 19.1 0.00 0.00 0.00 60 1008.6
20260506172506 71 153 6.1 18.2 0.00 0.00 0.00 59 1008.4
20260506172008 71 187 7.8 17.4 0.00 0.00 0.00 60 1008.4
20260506171505 70 171 4.3 8.7 0.00 0.00 0.00 62 1008.5
20260506171008 70 118 6.1 11.3 0.00 0.00 0.00 61 1008.4
20260506165008 70 213 5.2 11.3 0.00 0.00 0.00 61 1008.7
20260506164504 70 111 3.5 8.7 0.00 0.00 0.00 61 1008.6
20260506164008 70 146 6.1 13.0 0.00 0.00 0.00 61 1008.8
20260506163505 70 124 5.2 13.0 0.00 0.00 0.00 60 1008.8
20260506163008 71 186 7.8 12.2 0.00 0.00 0.00 60 1008.9
20260506162504 71 7 1.7 8.7 0.00 0.00 0.00 60 1009.1
20260506162008 71 168 2.6 8.7 0.00 0.00 0.00 60 1009.0
20260506161505 71 137 4.3 7.8 0.00 0.00 0.00 60 1009.1
20260506161008 71 84 4.3 8.7 0.00 0.00 0.00 59 1009.3
20260506160505 71 129 5.2 13.9 0.00 0.00 0.00 59 1009.4
20260506155504 72 135 4.3 7.8 0.00 0.00 0.00 58 1009.6
20260506155008 72 145 4.3 13.0 0.00 0.00 0.00 58 1009.7
20260506154504 72 245 1.7 7.0 0.00 0.00 0.00 59 1009.6
20260506154009 71 157 3.5 14.8 0.00 0.00 0.00 58 1009.8
20260506153504 72 128 6.1 13.9 0.00 0.00 0.00 58 1009.9
20260506153010 72 206 3.5 8.7 0.00 0.00 0.00 58 1009.9
20260506152504 72 242 5.2 10.4 0.00 0.00 0.00 58 1010.0
20260506152008 72 278 6.1 12.2 0.00 0.00 0.00 59 1010.2
20260506151505 71 242 5.2 12.2 0.00 0.00 0.00 59 1010.2
20260506151014 71 69 2.6 8.7 0.00 0.00 0.00 61 1010.3
20260506150005 70 191 6.1 13.0 0.00 0.00 0.00 61 1010.5
20260506145504 71 124 6.1 14.8 0.00 0.00 0.00 61 1010.5
20260506145009 70 170 2.6 7.0 0.00 0.00 0.00 62 1010.4
20260506144504 70 137 4.3 10.4 0.00 0.00 0.00 62 1010.3
20260506144008 69 105 4.3 8.7 0.00 0.00 0.00 63 1010.3
20260506143504 69 213 1.7 7.0 0.00 0.00 0.00 65 1010.3
20260506143008 69 114 7.0 12.2 0.00 0.00 0.00 64 1010.2
20260506142504 68 190 5.2 11.3 0.00 0.00 0.00 66 1010.3
20260506142008 68 140 4.3 12.2 0.00 0.00 0.00 67 1010.2
20260506141504 68 161 3.5 8.7 0.00 0.00 0.00 67 1010.3
20260506140504 67 28 1.7 6.1 0.00 0.00 0.00 69 1010.4
20260506135505 66 60 3.5 7.0 0.00 0.00 0.00 69 1010.4
20260506135008 66 236 2.6 6.1 0.00 0.00 0.00 70 1010.5
20260506134505 66 235 4.3 10.4 0.00 0.00 0.00 70 1010.7
20260506134007 66 4 1.7 8.7 0.00 0.00 0.00 71 1010.8
20260506133505 65 266 4.3 7.0 0.00 0.00 0.00 71 1010.9
20260506132504 65 196 3.5 11.3 0.00 0.00 0.00 72 1010.9
20260506132009 65 215 4.3 14.8 0.00 0.00 0.00 72 1010.8
20260506131504 65 224 3.5 8.7 0.00 0.00 0.00 73 1010.8
20260506131007 64 283 3.5 12.2 0.00 0.00 0.00 73 1010.8
20260506130505 64 118 4.3 11.3 0.00 0.00 0.00 72 1010.9
20260506130005 65 183 4.3 8.7 0.00 0.00 0.00 72 1010.8
20260506125504 65 175 3.5 10.4 0.00 0.00 0.00 73 1010.8
20260506125007 64 156 4.3 11.3 0.00 0.00 0.00 74 1010.9
20260506124504 63 195 4.3 8.7 0.00 0.00 0.00 76 1010.9
20260506123504 63 13 2.6 12.2 0.00 0.00 0.00 76 1011.1
20260506123008 63 193 2.6 8.7 0.00 0.00 0.00 76 1011.0
20260506122504 63 141 3.5 8.7 0.00 0.00 0.00 76 1010.9
20260506121008 62 121 4.3 10.4 0.00 0.00 0.00 78 1010.9
20260506120504 62 273 5.2 11.3 0.00 0.00 0.00 78 1011.0
20260506120004 62 208 3.5 10.4 0.00 0.00 0.00 78 1011.1
20260506115504 62 161 5.2 10.4 0.00 0.00 0.00 78 1011.0
20260506114504 62 147 2.6 7.8 0.00 0.00 0.00 78 1011.3
20260506113008 61 211 4.3 13.0 0.00 0.00 0.00 78 1011.3
20260506112504 62 145 2.6 8.7 0.00 0.00 0.00 78 1011.1
20260506111504 61 127 2.6 8.7 0.00 0.00 0.00 79 1011.2
20260506111008 61 156 4.3 8.7 0.00 0.00 0.00 79 1011.2
20260506110504 61 167 2.6 6.1 0.00 0.00 0.00 80 1011.1
20260506105007 61 160 3.5 7.8 0.00 0.00 0.00 80 1011.1
20260506104504 60 157 1.7 7.0 0.00 0.00 0.00 80 1011.2
20260506104008 61 237 2.6 10.4 0.00 0.00 0.00 80 1011.2
20260506103504 61 193 2.6 8.7 0.00 0.00 0.00 80 1011.4
20260506103008 61 122 2.6 7.0 0.00 0.00 0.00 80 1011.3
20260506102504 61 251 4.3 8.7 0.00 0.00 0.00 80 1011.2
20260506102008 61 189 1.7 7.0 0.00 0.00 0.00 79 1011.2
20260506101504 61 174 4.3 10.4 0.00 0.00 0.00 80 1011.1
20260506101008 61 243 2.6 7.0 0.00 0.00 0.00 80 1011.2
20260506100504 60 327 2.6 7.0 0.00 0.00 0.00 80 1011.1
20260506100004 60 195 1.7 5.2 0.00 0.00 0.00 80 1011.0
20260506095008 60 182 1.7 7.0 0.00 0.00 0.00 79 1011.0
20260506094504 60 166 1.7 8.7 0.00 0.00 0.00 79 1011.0
20260506094008 60 148 2.6 10.4 0.00 0.00 0.00 79 1011.0
20260506093008 60 338 0.9 6.1 0.00 0.00 0.00 79 1011.0
20260506092504 61 216 2.6 8.7 0.00 0.00 0.00 79 1011.0
20260506092008 60 5 1.7 5.2 0.00 0.00 0.00 79 1011.0
20260506091504 61 224 3.5 10.4 0.00 0.00 0.00 78 1010.9
20260506091008 61 185 2.6 10.4 0.00 0.00 0.00 78 1011.1
20260506090504 61 123 2.6 7.0 0.00 0.00 0.00 78 1011.1
20260506090004 61 31 1.7 7.0 0.00 0.00 0.00 78 1011.1
20260506085504 61 218 2.6 8.7 0.00 0.00 0.00 78 1011.1
20260506085008 61 282 2.6 8.7 0.00 0.00 0.00 78 1011.1
20260506084504 61 22 1.7 7.0 0.00 0.00 0.00 77 1011.1
20260506084008 61 139 2.6 6.1 0.00 0.00 0.00 77 1011.1
20260506082505 61 167 3.5 8.7 0.00 0.00 0.00 77 1011.0
20260506081008 61 249 3.5 8.7 0.00 0.00 0.00 76 1010.9
20260506080504 61 199 2.6 8.7 0.00 0.00 0.00 76 1011.0
20260506073505 62 254 4.3 10.4 0.00 0.00 0.00 74 1010.7
20260506073009 62 71 3.5 8.7 0.00 0.00 0.00 74 1010.8
20260506072505 62 165 3.5 10.4 0.00 0.00 0.00 74 1010.7
20260506072008 62 64 2.6 8.7 0.00 0.00 0.00 73 1010.6
20260506071504 62 210 4.3 10.4 0.00 0.00 0.00 73 1010.6
20260506071008 62 138 3.5 8.7 0.00 0.00 0.00 73 1010.6
20260506070504 62 225 4.3 10.4 0.00 0.00 0.00 73 1010.6
20260506062505 62 214 1.7 10.4 0.00 0.00 0.00 70 1010.6
20260506062008 63 325 2.6 7.0 0.00 0.00 0.00 70 1010.6
20260506061504 63 178 1.7 7.0 0.00 0.00 0.00 69 1010.6
20260506061008 63 125 2.6 8.7 0.00 0.00 0.00 69 1010.5
20260506060504 63 341 2.6 14.8 0.00 0.00 0.00 69 1010.6